Weather History for Charlotte, NC

Change the Weather History Date:

Saturday, November 5, 2011

  Actual Average Record
Temperature  
Mean Temperature 47 °F 54 °F  
Max Temperature 56 °F 66 °F 81 °F (2003)
Min Temperature 37 °F 42 °F 24 °F (2006)
Degree Days  
Heating Degree Days 18 11  
Month to date heating degree days 77 53  
Since 1 July heating degree days 293 259  
Cooling Degree Days 0 0  
Month to date cooling degree days 0 0  
Year to date cooling degree days 1923 1513  
Moisture  
Dew Point 30 °F    
Average Humidity 53    
Maximum Humidity 70    
Minimum Humidity 35    
Precipitation  
Precipitation 0.00 in 0.10 in 0.97 in (2002)
Month to date precipitation 1.15 0.50  
Year to date precipitation 38.92 35.74  
Snow  
Snow 0.00 in 0.00 in T in (1962)
Month to date snowfall 0.0 0.0  
Since 1 July snowfall 0.0 0.0  
Since 1 September snowfall 0.0 0.0  
Snow Depth 0.00 in    
Sea Level Pressure  
Sea Level Pressure 30.31 in    
Wind  
Wind Speed 9 mph (NNE)    
Max Wind Speed 18 mph    
Max Gust Speed 25 mph    
Visibility 10 miles    
Events      
T = Trace of Precipitation, MM = Missing Value Source: NWS Daily Summary

Daily Weather History Graph

Daily Weather History Graph

Search for Another Location

Airport:

Trip Planner

Search our weather history database for the weather conditions in past years. The results will help you decide how hot, cold, wet, or windy it might be!

Date:

Astronomy

Nov. 05, 2011 Rise Set
Actual Time 7:48 AM EDT 6:25 PM EDT
Civil Twilight 7:22 AM EDT 6:52 PM EDT
Nautical Twilight 6:52 AM EDT 7:22 PM EDT
Astronomical Twilight 6:22 AM EDT 7:51 PM EDT
Moon 3:34 PM EDT (11/5) 3:06 AM EDT (11/5)
Length of Visible Light 11h 29m
Length of Day
10h 36m
Waxing Gibbous, 78% of the Moon is Illuminated
Nov 5
Waxing Gibbous
Nov 10
Full
Nov 18
Last Quarter
Nov 25
New
Dec 2
First Quarter

Hourly Weather History & Observations

Time (EDT) Temp. Windchill Dew Point Humidity Pressure Visibility Wind Dir Wind Speed Gust Speed Precip Events Conditions
12:52 AM 50.0 °F - 39.0 °F 66% 30.13 in 10.0 mi NNE 11.5 mph - N/A   Clear
1:52 AM 48.0 °F - 36.0 °F 63% 30.14 in 10.0 mi NNE 13.8 mph 24.2 mph N/A   Clear
2:52 AM 46.0 °F 40.6 °F 33.1 °F 61% 30.15 in 10.0 mi NNE 11.5 mph 18.4 mph N/A   Clear
3:52 AM 45.0 °F 39.7 °F 30.9 °F 58% 30.18 in 10.0 mi NE 10.4 mph - N/A   Clear
4:52 AM 44.1 °F 38.1 °F 28.9 °F 55% 30.18 in 10.0 mi NE 11.5 mph 21.9 mph N/A   Clear
5:52 AM 41.0 °F 35.2 °F 28.0 °F 60% 30.22 in 10.0 mi NNE 9.2 mph - N/A   Clear
6:52 AM 39.0 °F 34.8 °F 28.0 °F 65% 30.26 in 10.0 mi North 5.8 mph - N/A   Clear
7:52 AM 37.4 °F 30.8 °F 28.4 °F 70% 30.28 in 10.0 mi North 9.2 mph - N/A   Clear
8:52 AM 41.0 °F 34.7 °F 28.0 °F 60% 30.32 in 10.0 mi NNE 10.4 mph - N/A   Clear
9:52 AM 44.1 °F 37.7 °F 27.0 °F 51% 30.35 in 10.0 mi NNE 12.7 mph 20.7 mph N/A   Clear
10:52 AM 46.9 °F - 28.9 °F 50% 30.37 in 10.0 mi NNE 12.7 mph - N/A   Clear
11:52 AM 50.0 °F - 30.9 °F 48% 30.38 in 10.0 mi NE 12.7 mph 21.9 mph N/A   Clear
12:52 PM 53.1 °F - 32.0 °F 45% 30.37 in 10.0 mi NNE 13.8 mph 18.4 mph N/A   Clear
1:52 PM 54.0 °F - 30.9 °F 41% 30.35 in 10.0 mi NE 12.7 mph 23.0 mph N/A   Clear
2:52 PM 55.4 °F - 28.4 °F 36% 30.33 in 10.0 mi NE 8.1 mph - N/A   Clear
3:52 PM 55.4 °F - 28.4 °F 36% 30.32 in 10.0 mi ENE 6.9 mph 17.3 mph N/A   Clear
4:52 PM 55.0 °F - 30.0 °F 38% 30.34 in 10.0 mi NNE 10.4 mph - N/A   Clear
5:52 PM 53.1 °F - 28.9 °F 40% 30.35 in 10.0 mi ENE 6.9 mph 17.3 mph N/A   Clear
6:52 PM 50.0 °F - 30.0 °F 46% 30.37 in 10.0 mi NE 5.8 mph - N/A   Clear
7:52 PM 46.9 °F - 30.0 °F 52% 30.38 in 10.0 mi NE 5.8 mph - N/A   Clear
8:52 PM 45.0 °F 41.2 °F 30.9 °F 58% 30.40 in 10.0 mi NNE 6.9 mph - N/A   Clear
9:52 PM 45.0 °F 41.2 °F 30.9 °F 58% 30.41 in 10.0 mi NNE 6.9 mph - N/A   Clear
10:52 PM 44.6 °F 40.2 °F 30.2 °F 57% 30.41 in 10.0 mi NNE 8.1 mph - N/A   Partly Cloudy
11:52 PM 41.0 °F 36.4 °F 32.0 °F 70% 30.42 in 10.0 mi North 6.9 mph - N/A   Partly Cloudy